GW1885 Weather Reports


Display with metric or nautical units.
time (UTC)temp
F
wind
direction
speed
MPH
gust
MPH
rain 1hr
in
rain 24hr
in
rain mn
in
humidity
%
barometer
mb
20260504190503 50 62 0.0 1.0 0.00 0.00 0.00 89 1012.3
20260504190004 50 62 0.0 2.0 0.00 0.00 0.00 89 1012.4
20260504185503 51 62 0.0 2.0 0.00 0.00 0.00 88 1012.2
20260504185003 51 62 0.0 2.0 0.00 0.00 0.00 87 1012.3
20260504184503 52 58 0.0 2.0 0.00 0.00 0.00 87 1012.3
20260504184003 52 41 0.0 2.0 0.00 0.00 0.00 87 1012.3
20260504183503 52 16 1.0 2.0 0.00 0.00 0.00 86 1012.1
20260504183003 52 348 1.0 4.0 0.00 0.00 0.00 86 1012.2
20260504182503 52 327 1.0 4.0 0.00 0.00 0.00 86 1012.0
20260504182003 53 328 1.0 3.0 0.00 0.00 0.00 85 1012.0
20260504181503 53 250 1.0 3.0 0.00 0.00 0.00 85 1012.0
20260504181004 53 264 1.0 3.0 0.00 0.00 0.00 85 1012.1
20260504180504 53 280 0.0 3.0 0.00 0.00 0.00 85 1012.0
20260504180004 53 334 1.0 4.0 0.00 0.00 0.00 84 1011.8
20260504175525 54 338 1.0 4.0 0.00 0.00 0.00 84 1011.8
20260504175004 54 317 1.0 8.0 0.00 0.00 0.00 83 1011.9
20260504174503 54 310 1.0 8.0 0.00 0.00 0.00 83 1011.8
20260504174003 54 299 1.0 3.0 0.00 0.00 0.00 82 1011.9
20260504173504 54 298 1.0 4.0 0.00 0.00 0.00 82 1011.7
20260504173003 55 293 2.0 6.0 0.00 0.00 0.00 81 1011.7
20260504172504 55 287 2.0 9.0 0.00 0.00 0.00 80 1011.8
20260504172004 56 283 2.0 9.0 0.00 0.00 0.00 79 1011.7
20260504171503 56 282 2.0 6.0 0.00 0.00 0.00 80 1011.8
20260504171003 56 275 1.0 6.0 0.00 0.00 0.00 79 1011.7
20260504170504 56 261 1.0 6.0 0.00 0.00 0.00 78 1011.7
20260504151004 60 290 3.0 9.0 0.00 0.00 0.00 73 1011.7
20260504150504 60 284 3.0 13.0 0.00 0.00 0.00 74 1011.5
20260504141002 62 279 3.0 9.0 0.00 0.00 0.00 71 1011.3
20260504140502 63 271 3.0 11.0 0.00 0.00 0.00 70 1011.3
20260504130504 64 274 6.0 15.0 0.00 0.00 0.00 68 1011.0
20260504110503 65 269 2.0 9.0 0.00 0.00 0.00 69 1010.3
20260504100503 66 269 3.0 8.0 0.00 0.00 0.00 68 1010.3
20260504082003 63 277 2.0 6.0 0.00 0.00 0.00 77 1010.1
20260504081503 63 296 2.0 6.0 0.00 0.00 0.00 77 1010.2
20260504081003 63 282 2.0 7.0 0.00 0.00 0.00 79 1009.9
20260504080502 63 264 2.0 7.0 0.00 0.00 0.00 75 1010.1
20260504050504 60 181 0.0 1.0 0.00 0.00 0.00 70 1008.8
20260504050004 60 181 0.0 1.0 0.00 0.00 0.00 70 1008.8
20260504045503 60 181 1.0 2.0 0.00 0.00 0.00 73 1008.7
20260504045003 59 181 1.0 2.0 0.00 0.00 0.00 70 1008.9
20260504044503 59 181 0.0 2.0 0.00 0.00 0.00 71 1008.6
20260504044003 58 181 0.0 2.0 0.00 0.00 0.00 72 1008.6
20260504043503 58 181 0.0 2.0 0.00 0.00 0.00 72 1008.8
20260504043003 58 181 0.0 2.0 0.00 0.00 0.00 70 1008.4
20260504042503 58 181 1.0 2.0 0.00 0.00 0.00 68 1008.3
20260504042004 58 176 1.0 4.0 0.00 0.00 0.00 68 1008.5
20260504041502 58 172 1.0 4.0 0.00 0.00 0.00 69 1008.6
20260504041003 57 170 1.0 4.0 0.00 0.00 0.00 71 1008.7
20260504040502 57 170 1.0 3.0 0.00 0.00 0.00 71 1008.6
20260504040004 56 167 1.0 4.0 0.00 0.00 0.00 71 1008.3
20260504035503 56 167 2.0 4.0 0.00 0.00 0.00 73 1008.6
20260504035004 56 172 1.0 3.0 0.00 0.00 0.00 74 1008.3
20260504034503 56 174 1.0 3.0 0.00 0.00 0.00 72 1008.5
20260504034003 56 173 1.0 3.0 0.00 0.00 0.00 72 1008.4
20260504033503 56 172 1.0 2.0 0.00 0.00 0.00 72 1008.5
20260504033004 56 171 1.0 2.0 0.00 0.00 0.00 72 1008.4
20260504032503 56 170 1.0 2.0 0.00 0.00 0.00 72 1008.5
20260504032002 55 170 1.0 2.0 0.00 0.00 0.00 73 1008.5
20260504031503 55 170 1.0 1.0 0.00 0.00 0.00 73 1008.4
20260504031003 55 170 1.0 2.0 0.00 0.00 0.00 73 1008.4
20260504030502 55 170 1.0 2.0 0.00 0.00 0.00 73 1008.3
20260504030004 55 169 1.0 3.0 0.00 0.00 0.00 73 1008.3
20260504025503 55 169 1.0 3.0 0.00 0.00 0.00 73 1008.3
20260504025024 55 169 2.0 3.0 0.00 0.00 0.00 73 1008.3
20260504024504 55 170 2.0 4.0 0.00 0.00 0.00 72 1008.3
20260504024003 55 171 2.0 4.0 0.00 0.00 0.00 72 1008.4
20260504023504 55 171 2.0 3.0 0.00 0.00 0.00 71 1008.3
20260504023003 55 167 2.0 3.0 0.00 0.00 0.00 71 1008.3
20260504022503 54 155 1.0 3.0 0.00 0.00 0.00 72 1008.3
20260504022025 54 154 1.0 3.0 0.00 0.00 0.00 75 1008.3
20260504021503 55 164 1.0 3.0 0.00 0.00 0.00 72 1008.3
20260504021003 54 168 1.0 3.0 0.00 0.00 0.00 72 1008.3
20260504020524 55 167 1.0 3.0 0.00 0.00 0.00 71 1008.2
20260504020003 54 161 1.0 3.0 0.00 0.00 0.00 71 1008.4
20260504015524 54 157 1.0 2.0 0.00 0.00 0.00 72 1008.3
20260504015024 54 158 1.0 3.0 0.00 0.00 0.00 72 1008.3
20260504014503 55 156 1.0 3.0 0.00 0.00 0.00 71 1008.4
20260504014003 55 150 1.0 2.0 0.00 0.00 0.00 70 1008.4
20260504013525 56 140 1.0 2.0 0.00 0.00 0.00 69 1008.5
20260504013003 56 144 1.0 2.0 0.00 0.00 0.00 70 1008.3
20260504012502 56 151 1.0 2.0 0.00 0.00 0.00 69 1008.5
20260504012003 56 162 0.0 2.0 0.00 0.00 0.00 70 1008.6
20260504011503 57 164 0.0 1.0 0.00 0.00 0.00 69 1008.5
20260504011003 57 165 0.0 1.0 0.00 0.00 0.00 67 1008.6
20260504010504 58 165 0.0 1.0 0.00 0.00 0.00 66 1008.6
20260504010004 58 165 1.0 3.0 0.00 0.00 0.00 67 1008.6
20260504005503 58 162 1.0 3.0 0.00 0.00 0.00 65 1008.6
20260504005025 59 163 1.0 3.0 0.00 0.00 0.00 63 1008.5
20260504004502 60 172 2.0 4.0 0.00 0.00 0.00 63 1008.7
20260504004003 60 174 3.0 4.0 0.00 0.00 0.00 61 1008.6
20260504003504 60 170 3.0 4.0 0.00 0.00 0.00 61 1008.5
20260504003004 60 164 3.0 4.0 0.00 0.00 0.00 62 1008.4
20260504002503 60 162 3.0 4.0 0.00 0.00 0.00 62 1008.5
20260504002003 59 158 2.0 4.0 0.00 0.00 0.00 64 1008.6
20260504001504 56 141 0.0 3.0 0.00 0.00 0.00 70 1008.4
20260504001003 55 135 0.0 1.0 0.00 0.00 0.00 72 1008.5
20260504000504 56 0 0.0 0.0 0.00 0.00 0.00 72 1008.5
20260504000004 56 135 0.0 1.0 0.00 0.00 0.00 72 1008.5
20260503235503 56 135 0.0 1.0 0.00 0.00 0.00 72 1008.4
20260503235004 56 135 0.0 1.0 0.00 0.00 0.00 71 1008.7
20260503234502 56 135 0.0 1.0 0.00 0.00 0.00 70 1008.6
20260503234003 57 135 0.0 1.0 0.00 0.00 0.00 72 1008.6
20260503233502 57 135 0.0 1.0 0.00 0.00 0.00 72 1008.7
20260503233002 57 135 0.0 1.0 0.00 0.00 0.00 70 1008.8
20260503232523 57 135 0.0 1.0 0.00 0.00 0.00 71 1008.8
20260503232004 57 0 0.0 0.0 0.00 0.00 0.00 71 1008.9
20260503231504 57 0 0.0 0.0 0.00 0.00 0.00 71 1008.9
20260503231003 57 135 0.0 1.0 0.00 0.00 0.00 72 1009.0
20260503230503 57 135 0.0 1.0 0.00 0.00 0.00 72 1009.2
20260503230003 57 135 0.0 2.0 0.00 0.00 0.00 72 1009.2
20260503225503 56 135 1.0 2.0 0.00 0.00 0.00 74 1009.1
20260503225003 56 135 0.0 1.0 0.00 0.00 0.00 75 1009.1
20260503224504 56 135 0.0 2.0 0.00 0.00 0.00 75 1009.0
20260503224003 56 135 0.0 2.0 0.00 0.00 0.00 75 1009.0
20260503223502 56 135 0.0 1.0 0.00 0.00 0.00 74 1009.1
20260503223003 57 135 0.0 1.0 0.00 0.00 0.00 74 1009.2
20260503222502 57 135 1.0 2.0 0.00 0.00 0.00 71 1008.9
20260503222002 58 136 1.0 2.0 0.00 0.00 0.00 70 1009.1
20260503221504 58 136 1.0 2.0 0.00 0.00 0.00 70 1009.2
20260503221024 57 135 1.0 2.0 0.00 0.00 0.00 71 1009.4
20260503220504 58 134 1.0 2.0 0.00 0.00 0.00 71 1009.4
20260503215004 58 130 1.0 1.0 0.00 0.00 0.00 73 1009.4
20260503214504 58 130 0.0 1.0 0.00 0.00 0.00 72 1009.6
20260503214004 59 130 0.0 1.0 0.00 0.00 0.00 70 1009.5
20260503213504 59 130 0.0 1.0 0.00 0.00 0.00 70 1009.7
20260503213004 59 130 1.0 2.0 0.00 0.00 0.00 70 1009.5
20260503212505 60 127 1.0 3.0 0.00 0.00 0.00 70 1009.8
20260503212004 60 128 1.0 3.0 0.00 0.00 0.00 67 1009.8
20260503211505 59 129 1.0 3.0 0.00 0.00 0.00 68 1009.8
20260503211005 59 128 1.0 2.0 0.00 0.00 0.00 69 1009.9
20260503210505 58 128 1.0 2.0 0.00 0.00 0.00 70 1010.0
20260503210005 58 128 0.0 1.0 0.00 0.00 0.00 75 1010.0
20260503205504 58 128 0.0 1.0 0.00 0.00 0.00 75 1010.2
20260503205004 58 0 0.0 0.0 0.00 0.00 0.00 72 1010.2
20260503204504 58 128 0.0 1.0 0.00 0.00 0.00 72 1010.2
20260503204026 58 128 1.0 1.0 0.00 0.00 0.00 72 1010.3
20260503203505 58 128 1.0 2.0 0.00 0.00 0.00 74 1010.3
20260503203004 59 128 0.0 2.0 0.00 0.00 0.00 74 1010.2
20260503202504 59 128 0.0 1.0 0.00 0.00 0.00 71 1010.4
20260503202005 59 130 1.0 4.0 0.00 0.00 0.00 72 1010.3
20260503201504 59 133 2.0 8.0 0.00 0.00 0.00 72 1010.6
20260503201046 58 143 2.0 8.0 0.00 0.00 0.00 74 1010.5
20260503200504 58 206 0.0 6.0 0.00 0.00 0.00 77 1010.4
20260503200004 58 231 1.0 6.0 0.00 0.00 0.00 75 1010.5
20260503195504 58 248 1.0 6.0 0.00 0.00 0.00 77 1010.3
20260503195004 59 276 1.0 2.0 0.00 0.00 0.00 74 1010.1
20260503194504 60 290 2.0 8.0 0.00 0.00 0.00 71 1010.9
20260503194005 60 305 2.0 8.0 0.00 0.00 0.00 64 1011.5
20260503193504 60 322 1.0 6.0 0.00 0.00 0.00 63 1011.6
20260503193004 59 333 0.0 2.0 0.00 0.00 0.00 68 1011.9
20260503192525 59 334 0.0 1.0 0.00 0.00 0.00 66 1010.8
20260503192026 59 0 0.0 0.0 0.00 0.00 0.00 65 1010.3
20260503191525 59 334 0.0 1.0 0.00 0.00 0.00 63 1010.4
20260503191004 60 0 0.0 0.0 0.00 0.00 0.00 62 1010.5